Location: *
(50.5492°N, 7.7469°E)
Time: 10:33:51
(UTC+00:00)

Meteor 1-16 Rocket - Pass Details

Date: 21 October 2019
Orbit: 790 x 908 km, 81.2° (Epoch: 12 November)

Event Time Altitude Azimuth Distance (km) Brightness Sun altitude
Rises 16:52:11 0° 176° (S) 3,377 7.4 -4.9°
Reaches altitude 10° 16:54:39 10° 172° (S) 2,430 6.7 -5.3°
Maximum altitude 16:59:59 55° 96° (E) 971 4.2 -6.1°
Drops below altitude 10° 17:05:13 10° 20° (NNE) 2,386 6.3 -7.0°
Sets 17:07:37 0° 16° (NNE) 3,312 7.0 -7.3°
